EHI
4 4 5 5 4 4 4 4 3 2 2 2 3 3 3 2 1 0 0 0 0 0 0 0 0 0 0 0 0 0 0 0 0 0 0 0 0 0 0 0 0 0 0
4 3 4 5 6 5 4 4 3 1 1 1 2 2 2 2 1 0 0 1 1 1 0 0 0 0 0 0 0 0 0 0 0 0 0 0 0 0 0 0 0 0 0
4 2 2 5 7 7 5 4 2 1 0 0 1 1 1 1 1 0 1 2 3 2 0 0 0 0 0 0 0 0 0 0 0 0 0 0 0 0 0 0 0 0 0
2 1 1 4 7 8 6 4 2 1 0 0 0 0 0 0 0 0 1 2 2 1 0 0 0 0 0 0 0 0 0 0 0 0 0 0 0 0 0 0 0 0 0
1 0 1 4 7 8 6 4 2 1 0 1 1 0 0 0 0 0 0 1 2 1 0 0 0 0 0 0 0 0 0 0 0 0 0 0 0 0 0 0 0 0 0
2 1 1 4 7 6 5 4 3 2 1 2 2 1 1 1 0 0 1 2 2 1 0 0 0 0 0 0 0 0 0 0 0 0 0 0 0 0 0 0 0 0 0
2 1 1 3 5 5 4 4 4 4 3 3 3 3 2 1 0 0 1 2 1 0 0 0 0 0 0 0 0 0 0 0 0 0 0 0 0 0 0 0 0 0 0
1 1 0 1 2 4 3 2 4 5 4 4 3 3 2 1 0 0 1 1 1 0 0 0 0 0 0 0 0 0 0 0 0 0 0 0 0 0 0 0 0 0 0
1 1 1 0 0 1 1 1 2 3 4 4 3 1 1 0 0 0 0 0 0 0 0 0 0 0 0 0 0 0 0 0 0 0 0 0 0 0 0 0 0 0 0
1 1 1 0 0 0 0 0 1 2 3 2 1 0 0 0 0 0 0 0 0 0 0 0 0 0 0 0 0 0 0 0 0 0 0 0 0 0 0 0 0 0 0
0 0 0 0 0 0 0 0 0 1 1 1 0 0 0 0 0 0 0 0 0 0 0 0 0 0 0 0 0 0 0 0 0 0 0 0 0 0 0 0 0 0 0
0 0 0 0 0 0 0 0 0 0 0 0 0 0 0 0 0 0 0 0 0 0 0 0 0 0 0 0 0 0 0 0 0 0 0 0 0 0 0 0 0 0 0
0 0 0 0 0 0 0 0 0 0 0 0 0 0 0 0 0 0 0 0 0 0 0 0 0 0 0 0 0 0 0 0 0 0 0 0 0 0 0 0 0 0 0
0 0 0 0 0 0 0 0 0 0 0 0 0 0 0 0 0 0 0 0 0 0 0 0 0 0 0 0 0 0 0 0 0 0 0 0 0 0 0 0 0 0 0
0 0 0 0 0 0 0 0 0 0 0 0 0 0 0 0 0 0 0 0 0 0 0 0 0 0 0 0 0 0 0 0 0 0 0 0 0 0 0 0 0 0 0
0 0 0 0 0 0 0 0 0 0 0 0 0 0 0 0 0 0 0 0 0 0 0 0 0 0 0 0 0 0 0 0 0 0 0 0 0 0 0 0 0 0 0
0 0 0 0 0 0 0 0 0 0 0 0 0 0 0 0 0 0 0 0 0 0 0 0 0 0 0 0 0 0 0 0 0 0 0 0 0 0 0 0 0 0 0
0 0 0 0 0 0 0 0 0 0 0 0 0 0 0 0 0 0 0 0 0 0 0 0 0 0 0 0 0 0 0 0 0 0 0 0 0 0 0 0 0 0 0
0 0 0 0 0 0 0 0 0 0 0 0 0 0 0 0 0 0 0 0 0 0 0 0 0 0 0 0 0 0 0 0 0 0 0 0 0 0 0 0 0 0 0
0 0 0 0 0 0 0 0 0 0 0 0 0 0 0 0 0 0 0 0 0 0 0 0 0 0 0 0 0 0 0 0 0 0 0 0 0 0 0 0 0 0 0
0 0 0 0 0 0 0 0 0 0 0 0 0 0 0 0 0 0 0 0 0 0 0 0 0 0 0 0 0 0 0 0 0 0 0 0 0 0 0 0 0 0 0
0 0 0 0 0 0 0 0 0 0 0 0 0 0 0 0 0 0 0 0 0 0 0 0 0 0 0 0 0 0 0 0 0 0 0 0 0 0 0 0 0 0 0
0 0 0 0 0 0 0 0 0 0 0 0 0 0 0 0 0 0 0 0 0 0 0 0 0 0 0 0 0 0 0 0 0 0 0 0 0 0 0 0 0 0 0
0 0 0 0 0 0 0 0 0 0 0 0 0 0 0 0 0 0 0 0 0 0 0 0 0 0 0 0 0 0 0 0 0 0 0 0 0 0 0 0 0 0 0
0 0 0 0 0 0 0 0 0 0 0 0 0 0 0 0 0 0 0 0 0 0 0 0 0 0 0 0 0 0 0 0 0 0 0 0 0 0 0 0 0 0 0
0 0 0 0 0 0 0 0 0 0 0 0 0 0 0 0 0 0 0 0 0 0 0 0 0 0 0 0 0 0 0 0 0 0 0 0 0 0 0 0 0 0 0
Wind_Speed
4 5 6 6 7 8 8 9 9 9 9 10 10 11 11 11 11 11 11 11 11 11 11 12 12 12 13 13 13 13 13 12 12 12 12 12 13 13 13 12 11 8 13
5 7 7 7 7 8 9 9 9 9 10 10 11 11 11 11 11 11 11 11 11 11 12 12 12 12 12 12 12 11 11 11 10 10 10 10 12 12 12 13 12 8 12
6 7 6 7 7 8 9 9 9 9 10 10 10 11 11 11 11 11 11 11 11 12 12 12 12 12 12 12 11 10 10 9 8 7 6 5 7 11 12 12 11 11 11
6 6 6 7 8 8 9 10 10 9 9 10 10 11 11 10 11 11 11 11 11 12 12 12 12 12 12 11 10 9 8 8 7 6 4 4 5 10 10 10 10 10 10
7 7 6 8 8 8 9 10 10 9 9 9 10 11 10 10 10 10 11 11 12 11 11 11 11 12 11 11 10 9 8 7 7 5 4 5 5 8 9 9 9 9 9
7 7 6 8 8 8 9 9 9 9 9 9 10 10 10 10 10 10 10 11 11 11 11 11 11 11 10 10 9 8 7 7 6 3 4 5 4 8 8 8 8 8 8
7 7 6 7 8 8 8 9 9 9 9 10 10 10 10 10 10 10 10 10 10 11 10 10 10 10 9 9 8 8 7 7 4 4 4 5 5 8 7 7 7 7 7
7 6 6 7 7 8 8 9 9 9 9 9 10 10 10 10 10 10 9 10 10 10 10 9 9 9 9 8 8 8 8 7 5 4 4 4 7 7 6 6 5 6 6
7 6 5 4 5 7 7 8 9 9 10 9 10 9 9 9 9 9 9 9 9 9 9 9 8 8 8 7 7 7 7 8 4 3 4 4 7 7 6 6 5 5 5
6 6 4 4 4 4 4 7 8 9 9 9 9 8 8 8 8 9 9 8 8 8 8 9 8 8 7 6 6 5 5 5 2 3 3 4 7 6 6 6 5 5 5
6 5 4 4 3 3 4 6 6 7 8 8 7 7 5 4 4 5 6 7 7 7 7 7 7 6 5 5 4 4 4 1 2 3 3 5 6 5 5 5 5 5 5
4 4 4 4 3 3 4 4 3 3 3 4 3 3 2 3 3 4 5 7 6 6 6 6 5 4 3 2 2 3 2 3 3 2 3 6 5 5 5 5 5 5 5
4 3 3 3 3 3 2 2 2 1 2 3 3 3 3 3 2 3 2 3 3 3 2 2 2 1 2 2 2 2 2 2 2 3 4 7 5 5 5 5 5 5 5
4 4 3 3 3 2 2 2 2 2 2 2 3 4 2 2 2 2 2 1 1 1 1 1 1 2 2 3 3 2 3 2 2 2 3 6 6 5 5 5 5 5 5
4 4 3 3 3 2 2 2 2 2 2 3 3 2 3 2 2 2 1 2 2 1 1 2 2 2 2 2 2 3 2 2 2 2 2 4 4 5 5 5 5 5 5
4 4 3 3 3 3 2 2 2 2 2 3 3 3 3 2 2 2 2 2 2 2 2 1 2 2 2 2 2 3 2 2 2 2 1 2 4 4 4 5 5 5 5
4 4 3 3 3 3 2 1 2 2 3 3 2 3 3 3 2 2 2 1 1 1 2 2 2 2 2 2 2 3 3 2 2 1 1 1 2 3 4 4 5 6 6
4 4 4 3 3 3 2 1 2 2 3 2 2 2 3 3 3 2 2 1 2 2 1 1 1 2 2 2 2 2 2 2 2 1 1 1 1 2 3 5 5 6 7
4 4 5 4 3 3 3 2 2 2 3 2 2 2 2 2 3 2 2 2 2 2 2 2 2 1 1 2 2 2 2 1 1 1 1 2 1 1 1 3 5 5 7
4 4 5 4 4 3 3 2 2 2 2 2 2 2 3 2 3 3 2 2 2 2 2 2 2 2 1 1 2 3 2 2 1 0 0 1 1 2 2 2 2 3 5
4 4 4 4 4 3 2 2 1 1 1 2 2 3 3 2 2 2 2 2 2 2 1 2 2 2 2 2 2 2 3 2 1 1 0 1 1 1 2 2 2 2 2
4 4 4 4 4 4 2 2 1 1 1 1 2 2 2 2 2 2 2 1 1 1 2 2 1 1 1 2 1 1 2 3 2 1 1 0 1 1 1 2 2 2 2
5 4 4 3 4 4 3 3 2 2 1 1 1 1 1 1 1 2 1 1 1 1 0 0 1 1 1 1 1 1 1 1 2 2 2 1 1 1 1 1 1 2 2
4 4 4 3 3 4 4 4 3 3 2 2 2 1 1 1 1 1 1 1 1 1 0 0 1 1 1 1 1 1 1 0 1 3 3 2 2 2 2 2 2 2 2
4 4 4 4 3 3 3 4 3 2 2 1 1 2 1 1 1 1 1 1 0 0 0 0 0 0 0 1 0 1 1 2 1 1 3 3 3 2 2 2 2 2 2
4 4 4 4 3 3 3 3 3 3 3 3 2 2 1 1 1 1 1 1 1 1 1 1 1 1 1 1 1 1 1 1 1 1 3 4 4 3 3 2 2 2 2
Wind_Direction
84 100 95 84 88 87 87 87 82 81 81 81 83 81 79 76 76 76 75 75 76 76 75 75 78 78 76 72 69 70 69 70 70 70 71 72 69 65 63 60 59 62 67
97 103 94 85 89 91 92 89 84 82 82 82 84 83 80 77 76 76 75 73 73 73 72 73 73 75 76 73 70 70 71 70 71 70 71 72 72 67 64 59 58 64 65
90 101 99 85 90 93 94 91 87 85 84 83 83 83 80 77 76 74 73 72 72 73 73 71 72 75 76 73 71 68 69 68 65 59 62 74 75 70 66 62 61 63 62
89 96 98 90 91 92 94 93 91 88 85 84 83 82 80 78 74 73 72 71 71 72 73 72 72 73 74 72 69 65 63 58 49 33 51 71 74 73 68 63 61 62 60
85 85 88 92 93 93 95 95 92 89 89 88 86 84 78 76 74 74 74 72 71 71 72 72 71 70 69 67 64 60 56 48 30 34 52 65 69 74 69 62 59 60 58
76 84 86 86 93 95 94 95 94 91 89 90 90 86 81 78 75 74 72 71 71 71 72 72 69 67 65 63 59 54 47 36 22 38 49 56 66 72 67 62 58 58 55
71 76 84 80 91 94 94 95 94 90 88 89 88 85 83 80 77 73 73 71 71 70 70 71 69 66 62 61 55 47 36 26 33 42 52 54 61 66 62 54 50 55 54
71 70 82 72 85 89 91 93 94 91 89 89 87 86 83 80 78 76 73 73 72 69 66 67 67 66 62 58 53 43 31 20 24 41 58 56 57 56 50 48 51 51 49
75 70 66 73 89 92 91 92 94 93 90 89 87 86 84 81 75 74 69 70 72 70 68 65 65 64 62 57 50 40 25 14 12 28 56 59 56 52 45 43 44 47 49
72 68 61 56 82 92 96 92 92 91 89 87 83 81 81 81 76 72 66 67 69 69 67 64 60 57 55 54 48 35 16 3 20 38 48 53 50 45 42 40 41 47 46
66 56 60 55 71 87 92 91 89 89 87 88 82 76 76 76 73 69 67 67 69 69 69 64 58 53 49 48 36 15 3 4 31 50 54 58 49 42 40 39 41 40 40
76 55 49 50 61 80 91 95 88 88 89 85 79 70 64 66 68 70 67 69 70 66 64 58 48 45 32 25 18 10 7 9 28 48 55 60 54 44 38 41 39 36 34
101 75 53 47 53 65 83 100 90 88 89 84 81 63 61 70 68 68 63 64 61 61 57 49 26 11 15 11 14 10 8 21 30 39 54 58 48 40 36 35 36 37 35
106 93 70 59 51 57 60 88 94 83 85 84 77 71 64 67 62 60 61 54 46 38 27 12 7 18 12 6 14 11 7 18 33 45 60 58 44 38 31 25 26 29 26
118 108 95 76 69 61 63 69 84 86 81 86 80 70 66 68 66 61 54 50 37 32 28 9 14 11 6 7 7 6 360 5 19 33 53 54 40 32 24 17 15 15 12
123 123 111 93 83 77 74 80 83 84 79 79 77 70 68 66 63 60 57 47 34 25 20 16 17 16 6 6 4 356 350 6 21 17 31 36 39 28 13 9 5 359 358
125 121 112 108 94 86 73 78 87 88 84 81 77 69 68 70 71 67 60 50 28 16 25 22 20 23 11 6 4 358 351 357 10 7 8 17 30 28 17 6 6 1 356
128 126 123 111 107 104 91 83 92 90 86 84 80 76 67 66 69 72 63 45 25 20 28 26 30 24 15 9 352 337 335 340 353 356 14 35 28 23 26 26 13 4 359
138 138 132 124 118 115 108 97 96 98 96 94 86 81 65 65 67 73 62 48 41 29 18 18 26 29 21 4 338 328 325 314 315 345 25 29 32 39 44 31 21 11 5
140 140 137 131 122 116 115 101 88 87 90 93 89 88 74 64 65 69 67 50 44 48 30 30 25 18 20 354 336 325 301 278 281 345 13 34 43 48 41 29 22 11 5
139 142 142 137 134 127 125 126 119 105 98 92 89 89 84 72 64 70 71 68 55 55 41 41 42 25 4 359 5 335 309 282 234 166 84 48 48 44 30 29 28 15 352
148 149 146 151 149 142 139 139 144 132 131 114 97 88 83 78 69 68 81 79 68 68 49 38 48 41 360 15 28 340 333 334 353 357 23 22 26 22 15 9 20 4 356
154 160 157 158 150 144 134 123 111 92 76 93 119 119 99 90 88 75 76 87 77 85 108 46 64 67 21 332 3 55 25 302 325 318 318 337 3 357 342 341 353 346 338
154 152 154 155 153 150 144 150 163 165 171 187 159 146 131 118 103 88 78 79 105 87 96 5 42 44 101 297 325 343 293 277 306 315 316 329 340 326 317 329 328 319 324
144 151 160 157 160 155 161 167 174 175 163 140 138 142 139 138 117 103 112 100 125 133 130 104 43 353 228 224 254 310 313 316 268 253 287 308 314 302 309 308 304 302 314
139 148 159 159 168 168 172 176 183 180 165 154 164 166 161 157 139 155 153 139 167 167 171 191 206 238 247 254 249 238 245 265 280 272 278 296 298 296 300 289 285 286 298